Regional Weather Roundup
Issued by NWS Goodland, KS

Home | Current Version | Previous Version | Graphics & Text | Print | Product List | Glossary On
Versions: 1 2 3 4 5 6 7 8 9 10 11 12 13 14 15 16 17 18 19 20 21 22 23 24 25 26 27 28 29 30 31 32 33 34 35 36 37 38 39 40 41 42 43 44 45 46 47 48 49 50
000
ASUS43 KGLD 202208
RWRGLD

GOODLAND FORECAST AREA HOURLY WEATHER ROUNDUP
NATIONAL WEATHER SERVICE GOODLAND KS
400 PM MDT WED AUG 20 2014

...OFFICIAL OBSERVATIONS...

CITY           SKY/WX    TMP DP  RH WIND       PRES   REMARKS
GOODLAND KS    PTSUNNY   95  54  25 MISG      29.78F
HILL CITY KS   MOSUNNY   99  61  28 S20       29.72F
IMPERIAL NEB   SUNNY     91  56  30 NW6       29.79F
MCCOOK NEB     PTSUNNY   97  60  29 S8        29.73F
AKRON CO       MOSUNNY   85  53  33 S13       29.88F
BURLINGTON CO  CLOUDY    91  52  26 NE9       29.84F
LIMON CO       CLOUDY    84  45  25 S6        29.92F
$$

...UNOFFICIAL OBSERVATIONS...

CITY           SKY/WX    TMP DP  RH WIND       PRES   REMARKS
COLBY KS       LGT RAIN  81  73  78 SE16      29.77F
LENORA KS        N/A     96  32  10 CALM        N/A
NORTON KS      SUNNY     99  54  22 SE13      29.72S
SHARON SPRINGS   N/A     95  58  28 SE10G20     N/A
WAKEENEY KS      N/A     99  51  19 MISG        N/A
KIT CARSON CO    N/A     93  50  22 MISG        N/A
YUMA CO          N/A     86  55  34 CALM        N/A
$$



USA.gov is the U.S. government's official web portal to all federal, state and local government web resources and services.